Overview Statistics Trail Chart Weather Telemetry Raw packets
 

This is the latest recevied weather packets stored in our database for station/object KF6FPU-15. If no packets are shown the sender has not sent any weather packets the latest 10 day(s).

<< 28 29 30 31 32 33 34 >>
Time Temp. Humidity Pressure Rain* Wind** Luminosity Snow
1788204781 33.33° C 18% 1013 hPa - - - -
1788204181 33.33° C 19% 1013 hPa - - - -
1788203581 32.78° C 19% 1013.1 hPa - - - -
1788202981 31.11° C 19% 1013.2 hPa - - - -
1788202381 30.56° C 19% 1013.2 hPa - - - -
1788201781 30.56° C 19% 1013.2 hPa - - - -
1788201181 30.56° C 19% 1013.2 hPa - - - -
1788200581 30° C 19% 1013.2 hPa - - - -
1788199981 30° C 20% 1013.1 hPa - - - -
1788198781 29.44° C 20% 1013.3 hPa - - - -
1788198181 29.44° C 20% 1013.1 hPa - - - -
1788197581 29.44° C 20% 1013.1 hPa - - - -
1788196981 28.89° C 20% 1013 hPa - - - -
1788196381 28.89° C 20% 1012.9 hPa - - - -
1788195781 28.89° C 20% 1012.9 hPa - - - -
1788195181 28.89° C 20% 1012.8 hPa - - - -
1788194581 28.89° C 20% 1012.8 hPa - - - -
1788193981 28.89° C 20% 1012.8 hPa - - - -
1788193381 28.89° C 20% 1012.7 hPa - - - -
1788192181 28.33° C 20% 1012.6 hPa - - - -
1788191581 28.33° C 20% 1012.7 hPa - - - -
1788190981 28.33° C 20% 1012.7 hPa - - - -
1788190381 28.33° C 20% 1012.6 hPa - - - -
1788189781 28.33° C 20% 1012.6 hPa - - - -
1788189181 28.33° C 20% 1012.6 hPa - - - -

* Rain since midnight (hover to see other rain measurements)
** Current wind speed in m/s (hover to see current wind gust speed)